TimeCST,TemperatureF,Dew PointF,Humidity,Sea Level PressureIn,VisibilityMPH,Wind Direction,Wind SpeedMPH,Gust SpeedMPH,PrecipitationIn,Events,Conditions,WindDirDegrees,DateUTC
12:15 AM,41.0,32.0,70,30.21,10.0,Calm,Calm,-,N/A,,Clear,0,2013-12-17 06:15:00
12:35 AM,39.2,32.0,75,30.21,10.0,Calm,Calm,-,N/A,,Clear,0,2013-12-17 06:35:00
12:55 AM,37.4,30.2,75,30.23,10.0,Calm,Calm,-,N/A,,Clear,0,2013-12-17 06:55:00
1:15 AM,35.6,32.0,87,30.23,10.0,NE,3.5,-,N/A,,Clear,50,2013-12-17 07:15:00
1:35 AM,35.6,32.0,87,30.22,10.0,East,3.5,-,N/A,,Clear,90,2013-12-17 07:35:00
1:55 AM,33.8,32.0,93,30.23,10.0,Calm,Calm,-,N/A,,Clear,0,2013-12-17 07:55:00
2:15 AM,35.6,32.0,87,30.22,10.0,Calm,Calm,-,N/A,,Clear,0,2013-12-17 08:15:00
2:35 AM,33.8,32.0,93,30.22,10.0,Calm,Calm,-,N/A,,Clear,0,2013-12-17 08:35:00
2:55 AM,33.8,32.0,93,30.22,10.0,Calm,Calm,-,N/A,,Clear,0,2013-12-17 08:55:00
3:15 AM,33.8,30.2,87,30.23,10.0,Calm,Calm,-,N/A,,Clear,0,2013-12-17 09:15:00
3:35 AM,33.8,32.0,93,30.23,10.0,Calm,Calm,-,N/A,,Clear,0,2013-12-17 09:35:00
3:55 AM,33.8,32.0,93,30.22,10.0,SSW,3.5,-,N/A,,Clear,200,2013-12-17 09:55:00
4:15 AM,32.0,28.4,87,30.23,10.0,NNE,4.6,-,N/A,,Clear,20,2013-12-17 10:15:00
4:35 AM,32.0,32.0,100,30.23,10.0,ENE,4.6,-,N/A,,Clear,70,2013-12-17 10:35:00
4:55 AM,32.0,30.2,93,30.23,10.0,Calm,Calm,-,N/A,,Clear,0,2013-12-17 10:55:00
5:15 AM,32.0,30.2,93,30.23,10.0,Calm,Calm,-,N/A,,Clear,0,2013-12-17 11:15:00
5:35 AM,32.0,30.2,93,30.23,10.0,Calm,Calm,-,N/A,,Clear,0,2013-12-17 11:35:00
5:55 AM,32.0,30.2,93,30.23,10.0,Calm,Calm,-,N/A,,Clear,0,2013-12-17 11:55:00
6:15 AM,32.0,30.2,93,30.23,10.0,Calm,Calm,-,N/A,,Clear,0,2013-12-17 12:15:00
6:35 AM,30.2,28.4,93,30.23,10.0,Calm,Calm,-,N/A,,Clear,0,2013-12-17 12:35:00
6:55 AM,30.2,28.4,93,30.24,10.0,Calm,Calm,-,N/A,,Clear,0,2013-12-17 12:55:00
7:15 AM,30.2,28.4,93,30.24,10.0,Calm,Calm,-,N/A,,Clear,0,2013-12-17 13:15:00
7:35 AM,30.2,30.2,100,30.24,7.0,Calm,Calm,-,N/A,,Clear,0,2013-12-17 13:35:00
7:55 AM,32.0,32.0,100,30.25,7.0,Calm,Calm,-,N/A,,Clear,0,2013-12-17 13:55:00
8:15 AM,32.0,32.0,100,30.26,10.0,Calm,Calm,-,N/A,,Clear,0,2013-12-17 14:15:00
8:35 AM,35.6,33.8,93,30.27,10.0,Calm,Calm,-,N/A,,Clear,0,2013-12-17 14:35:00
8:55 AM,39.2,35.6,87,30.28,10.0,Calm,Calm,-,N/A,,Clear,0,2013-12-17 14:55:00
9:15 AM,42.8,35.6,76,30.28,10.0,Calm,Calm,-,N/A,,Clear,0,2013-12-17 15:15:00
9:35 AM,46.4,35.6,66,30.28,10.0,Calm,Calm,-,N/A,,Clear,0,2013-12-17 15:35:00
9:55 AM,48.2,35.6,62,30.29,10.0,West,3.5,-,N/A,,Clear,260,2013-12-17 15:55:00
10:15 AM,51.8,37.4,58,30.29,10.0,West,4.6,-,N/A,,Clear,270,2013-12-17 16:15:00
10:35 AM,51.8,35.6,54,30.29,10.0,WSW,3.5,-,N/A,,Clear,250,2013-12-17 16:35:00
10:55 AM,53.6,35.6,51,30.28,10.0,Calm,Calm,-,N/A,,Clear,0,2013-12-17 16:55:00
11:15 AM,57.2,35.6,44,30.28,10.0,Calm,Calm,-,N/A,,Clear,0,2013-12-17 17:15:00
11:35 AM,59.0,37.4,45,30.27,10.0,WNW,4.6,-,N/A,,Clear,300,2013-12-17 17:35:00
11:55 AM,60.8,35.6,39,30.27,10.0,WNW,4.6,-,N/A,,Clear,290,2013-12-17 17:55:00
12:15 PM,60.8,37.4,42,30.26,10.0,West,3.5,-,N/A,,Clear,260,2013-12-17 18:15:00
12:35 PM,62.6,35.6,37,30.25,10.0,Calm,Calm,-,N/A,,Clear,0,2013-12-17 18:35:00
12:55 PM,64.4,37.4,37,30.24,10.0,Calm,Calm,-,N/A,,Clear,0,2013-12-17 18:55:00
1:15 PM,64.4,35.6,34,30.23,10.0,WSW,3.5,-,N/A,,Clear,240,2013-12-17 19:15:00
1:35 PM,66.2,37.4,35,30.23,10.0,West,3.5,-,N/A,,Clear,260,2013-12-17 19:35:00
1:55 PM,68.0,37.4,33,30.23,10.0,WSW,3.5,-,N/A,,Clear,240,2013-12-17 19:55:00
2:15 PM,68.0,35.6,30,30.22,10.0,WNW,3.5,-,N/A,,Clear,300,2013-12-17 20:15:00
2:35 PM,68.0,35.6,30,30.22,10.0,WSW,3.5,-,N/A,,Clear,240,2013-12-17 20:35:00
2:55 PM,68.0,37.4,33,30.22,10.0,WSW,3.5,-,N/A,,Clear,240,2013-12-17 20:55:00
3:15 PM,68.0,39.2,35,30.22,10.0,SW,4.6,-,N/A,,Clear,230,2013-12-17 21:15:00
3:35 PM,68.0,39.2,35,30.23,10.0,SW,4.6,-,N/A,,Clear,220,2013-12-17 21:35:00
3:55 PM,68.0,41.0,37,30.23,10.0,SSW,4.6,-,N/A,,Clear,210,2013-12-17 21:55:00
4:15 PM,66.2,39.2,37,30.24,10.0,South,4.6,-,N/A,,Clear,170,2013-12-17 22:15:00
4:35 PM,64.4,41.0,42,30.24,10.0,SW,4.6,-,N/A,,Clear,230,2013-12-17 22:35:00
4:55 PM,62.6,39.2,42,30.24,10.0,West,5.8,-,N/A,,Clear,270,2013-12-17 22:55:00
5:15 PM,60.8,37.4,42,30.25,10.0,Calm,Calm,-,N/A,,Clear,0,2013-12-17 23:15:00
5:35 PM,57.2,37.4,48,30.25,10.0,Calm,Calm,-,N/A,,Clear,0,2013-12-17 23:35:00
5:55 PM,53.6,37.4,54,30.26,10.0,NNE,3.5,-,N/A,,Clear,20,2013-12-17 23:55:00
6:15 PM,51.8,37.4,58,30.26,10.0,NNE,5.8,-,N/A,,Clear,20,2013-12-18 00:15:00
6:35 PM,51.8,35.6,54,30.26,10.0,NNE,6.9,-,N/A,,Clear,30,2013-12-18 00:35:00
6:55 PM,51.8,32.0,47,30.27,10.0,NNE,4.6,-,N/A,,Clear,20,2013-12-18 00:55:00
7:15 PM,51.8,32.0,47,30.27,10.0,NNE,5.8,-,N/A,,Clear,20,2013-12-18 01:15:00
7:35 PM,51.8,32.0,47,30.28,10.0,NNE,6.9,-,N/A,,Clear,30,2013-12-18 01:35:00
7:55 PM,51.8,32.0,47,30.28,10.0,NNE,4.6,-,N/A,,Clear,20,2013-12-18 01:55:00
8:15 PM,50.0,32.0,50,30.28,10.0,NNE,4.6,-,N/A,,Clear,30,2013-12-18 02:15:00
8:35 PM,48.2,32.0,54,30.28,10.0,NNE,4.6,-,N/A,,Clear,30,2013-12-18 02:35:00
8:55 PM,50.0,32.0,50,30.28,10.0,NE,3.5,-,N/A,,Clear,50,2013-12-18 02:55:00
9:15 PM,46.4,32.0,57,30.28,10.0,NE,4.6,-,N/A,,Clear,40,2013-12-18 03:15:00
9:35 PM,42.8,32.0,66,30.29,10.0,NE,4.6,-,N/A,,Clear,40,2013-12-18 03:35:00
9:55 PM,42.8,32.0,66,30.29,10.0,NE,3.5,-,N/A,,Clear,40,2013-12-18 03:55:00
10:15 PM,41.0,32.0,70,30.29,10.0,Calm,Calm,-,N/A,,Clear,0,2013-12-18 04:15:00
10:35 PM,41.0,32.0,70,30.29,10.0,Calm,Calm,-,N/A,,Clear,0,2013-12-18 04:35:00
10:55 PM,41.0,32.0,70,30.29,10.0,Calm,Calm,-,N/A,,Clear,0,2013-12-18 04:55:00
11:15 PM,39.2,32.0,75,30.28,10.0,East,5.8,-,N/A,,Clear,80,2013-12-18 05:15:00
11:35 PM,37.4,32.0,81,30.28,10.0,Calm,Calm,-,N/A,,Clear,0,2013-12-18 05:35:00
11:55 PM,37.4,32.0,81,30.28,10.0,ENE,4.6,-,N/A,,Clear,70,2013-12-18 05:55:00